Location: Durlangen
(48.8574°N, 9.7958°E)
Time: 09:55:41
(UTC+00:00)

Daily predictions for brighter satellites

Satellite Brightness Start Highest point End
(mag) Time Altitude Azimuth Time Altitude Azimuth Time Altitude Azimuth
NOSS 0 Rocket 4.4 19:30:16 10° SW 19:36:24 71° WNW 19:42:36 10° NNE
Cosmos 2056 Rocket 4.2 19:32:24 10° NNW 19:37:34 42° ENE 19:42:38 10° SE
Lacrosse 5 2.0 19:33:10 10° NW 19:38:18 85° NE 19:43:26 10° SE
USA 276 1.6 19:39:26 10° W 19:41:35 60° N 19:43:49 10° E
Ariane Rocket 4.0 19:37:29 10° SE 19:41:54 31° ENE 19:46:22 10° N
Meteor 1-5 Rocket 4.5 19:36:24 10° N 19:42:18 62° ENE 19:48:02 10° SSE
IRS-1C Rocket 4.3 19:37:56 10° SSE 19:43:05 57° ENE 19:48:16 10° N
CZ-4 R/B 3.9 19:40:44 10° SW 19:43:30 19° W 19:46:18 10° NW
Cosmos 44 3.8 19:38:43 10° NNW 19:43:33 50° NE 19:48:03 10° ESE
Lacrosse 5 rocket 1.6 19:39:51 10° SSW 19:43:59 48° SE 19:48:05 10° ENE
Cosmos 2369 Rocket 3.2 19:39:51 10° NNW 19:44:59 35° NE 19:50:06 10° ESE
Cosmos 1812 Rocket 3.6 19:40:58 10° S 19:45:21 65° E 19:49:43 10° NNE
ATLAS 5 CENTAUR R/B 3.9 19:42:47 10° WNW 19:47:00 25° WSW 19:51:54 10° S
Cosmos 2221 3.4 19:46:57 10° SSE 19:50:47 32° E 19:54:38 10° NNE
Cosmos 2344 4.2 19:42:27 10° NW 19:50:47 84° SW 20:02:20 10° SE
Cosmos 2084 4.0 19:50:24 10° NNW 19:54:01 42° NE 19:57:37 10° ESE
Resurs 01 Rocket 3.2 19:50:41 10° SSW 19:54:45 35° W 19:58:50 10° NNW
Cosmos 2237 Rocket 2.8 19:53:11 10° SW 19:58:49 65° WNW 20:04:31 10° NNE
BREEZE-M DEB (TANK) 2.4 19:56:49 10° SW 19:59:57 38° SSE 20:01:57 10° E
USA 308 3.6 19:58:08 10° W 20:00:18 22° SW 20:02:51 10° SSE
Cosmos 1378 2.8 19:58:01 10° S 20:01:16 61° E 20:04:32 10° NNE
ATLAS 3B R/B 3.1 19:54:21 10° NW 20:02:14 87° SW 20:09:48 11° SE
BREEZE-M DEB (TANK) 4.0 19:59:45 10° SW 20:03:14 45° SSE 20:11:49 10° E
Cosmos 921 Rocket 4.0 20:01:27 10° SSE 20:05:16 29° E 20:09:08 10° NE
Aureole 3 Rocket 3.1 20:02:53 10° N 20:06:24 55° E 20:10:55 10° SSE
GEOS 3 Rocket 4.0 20:02:44 10° NE 20:07:33 38° ESE 20:12:17 10° S
Cosmos 923 Rocket 4.0 20:02:22 10° SSW 20:07:41 80° ESE 20:13:02 10° NNE
SPOT 5 2.8 20:03:04 10° SSE 20:07:46 84° WSW 20:12:16 10° NNW
USA 306 4.1 20:05:16 10° WNW 20:08:45 36° N 20:12:23 10° ENE
Landsat 4 3.7 20:08:45 13° SSE 20:11:47 55° ENE 20:15:13 10° N
ARGOS Delta rocket 4.0 20:09:57 10° SSE 20:15:03 68° ENE 20:19:55 10° N
Cosmos 1943 4.5 20:12:15 12° SE 20:15:47 21° E 20:19:56 10° NE
Okean O Rocket 3.7 20:13:03 10° SSW 20:16:43 25° W 20:20:25 10° NW
USA 234 4.4 20:11:38 10° ENE 20:17:45 44° N 20:23:51 10° WNW
Terra 1.9 20:13:56 12° SSE 20:18:17 68° ENE 20:23:00 10° N
Cosmos 1656 Rocket 3.7 20:17:21 10° NNW 20:22:49 76° ENE 20:27:23 15° SE
Cosmos 1371 Rocket 4.1 20:17:59 10° NNW 20:23:22 89° WSW 20:28:03 14° SSE
ERS-1 Rocket 3.0 20:18:56 11° SSE 20:23:48 88° ENE 20:28:52 10° NNW
ATLAS 2AS CENTAUR R/B 3.5 20:19:10 10° WSW 20:26:27 61° NW 20:33:27 10° NE
Cosmos 1842 Rocket 4.4 20:24:38 15° SSE 20:27:43 34° E 20:31:42 10° NNE
Meteor 1-14 Rocket 4.5 20:22:42 10° N 20:28:29 63° ENE 20:33:21 15° SSE
SPOT 3 Rocket 3.6 20:24:07 14° SSE 20:28:31 68° ENE 20:33:37 10° N
USA 59 Rocket 2.3 20:28:48 10° N 20:30:50 14° NNE 20:33:07 10° ENE
USA 281 3.3 20:27:32 15° SE 20:33:11 72° ENE 20:39:47 10° NNW
Cosmos 1943 Rocket 3.9 20:29:56 10° NW 20:34:39 28° WSW 20:39:19 10° SSW
Cosmos 1420 Rocket 4.4 20:30:36 10° NNW 20:35:50 61° WSW 20:40:30 13° S
Cosmos 1743 2.5 20:35:14 10° N 20:38:52 89° WNW 20:41:25 18° S
ISS -3.2 20:37:24 10° WNW 20:40:42 57° N 20:43:45 12° E
ARIANE 5 R/B 4.5 20:38:37 11° ESE 20:41:18 19° ENE 20:44:18 10° NNE
USA 245 3.1 20:42:39 19° SSW 20:43:54 37° WSW 20:46:02 10° NNW
Cosmos 2279 Rocket 4.1 20:40:10 10° N 20:46:20 64° ENE 20:50:54 19° SSE
Cosmos 2297 3.9 20:41:21 10° NNW 20:47:06 73° WSW 20:51:24 18° SSE
Cosmos 1634 Rocket 4.0 20:40:59 10° N 20:47:19 89° W 20:52:38 15° S
Cosmos 2112 Rocket 4.3 20:44:48 10° SSW 20:50:07 74° WNW 20:55:27 10° NNE
USA 290 4.3 20:48:37 10° NW 20:51:11 22° WSW 20:53:34 11° SSW
Cosmos 1766 Rocket 3.9 20:47:34 10° NNW 20:51:58 63° W 20:55:32 15° S
USA 229 DEB 4.0 20:48:20 10° NW 20:55:45 90° NE 21:01:46 20° SE
USA 229 4.0 20:48:25 10° NW 20:55:51 89° NE 21:01:53 20° SE
Cosmos 1726 1.8 20:54:19 10° N 20:57:26 58° ENE 20:58:35 33° SE
Spot 2 Rocket 3.8 20:54:06 15° S 20:58:11 62° WSW 21:03:12 10° NNW
Cosmos 1680 Rocket 4.3 20:55:17 10° SW 21:00:27 53° WNW 21:05:38 10° NNE
Meteor 2-6 Rocket 4.2 20:58:35 10° SSW 21:04:15 86° WNW 21:09:47 10° N
USA 32 4.4 21:01:27 10° SSW 21:06:38 63° W 21:11:50 10° N
Cosmos 1743 Rocket 4.3 21:04:46 10° N 21:08:53 38° ENE 21:10:51 25° SE
MetOp-A 3.7 21:11:24 26° SSE 21:13:53 86° WSW 21:18:39 10° NNW
Sich 1 3.5 21:09:45 10° N 21:13:58 46° ENE 21:15:51 28° SE
USA 276 2.3 21:13:38 10° W 21:15:14 35° WSW 21:15:14 35° WSW
SL-16 R/B 3.0 21:10:28 10° SW 21:15:59 53° NW 21:21:35 10° NNE
Cosmos 2263 4.3 21:10:55 10° NNW 21:16:36 75° WSW 21:20:00 25° SSE
MOS 1 Rocket 4.0 21:13:56 18° S 21:17:30 55° W 21:22:40 10° NNW
Cosmos 1603 4.2 21:15:41 25° SSE 21:18:25 41° ESE 21:23:43 10° NE
Cosmos 1975 4.5 21:17:35 10° NNE 21:20:38 21° ENE 21:21:58 18° E
Cosmos 1536 2.6 21:16:45 10° N 21:20:38 87° E 21:22:15 34° S
Ariane Rocket 4.0 21:16:49 15° SSW 21:20:43 41° W 21:25:32 10° NNW
Lacrosse 5 3.4 21:16:46 10° WNW 21:20:48 24° SW 21:23:08 17° SSW
Cosmos 2180 Rocket 4.4 21:15:36 10° N 21:21:51 84° E 21:25:40 25° SSE
Lacrosse 5 rocket 2.6 21:18:18 10° W 21:22:25 44° NNW 21:26:28 10° NE
USA 267 4.2 21:17:31 10° ENE 21:22:35 24° SE 21:23:24 23° SE
Cosmos 1452 Rocket 3.5 21:18:43 10° NNW 21:23:59 90° WSW 21:26:45 29° SSE
Cosmos 1408 Rocket 3.5 21:19:34 10° N 21:24:03 88° WSW 21:26:12 30° S
Spot 1 4.1 21:20:35 10° N 21:24:37 69° WNW 21:27:37 18° SSW
Meteor 1-27 Rocket 3.9 21:22:18 26° SSE 21:25:11 54° E 21:30:34 10° NNE
Okean 1 3.2 21:25:59 37° SSE 21:27:21 65° E 21:31:11 10° NNE
Cosmos 1340 3.1 21:24:53 10° N 21:28:07 39° ENE 21:28:49 34° ESE
Cosmos 2221 4.4 21:24:23 10° SW 21:28:07 28° WNW 21:31:52 10° N
Cosmos 2369 Rocket 2.8 21:23:49 10° NW 21:29:08 46° WSW 21:32:23 22° S
Cosmos 1626 4.3 21:31:50 11° ENE 21:31:50 11° ENE 21:32:30 10° ENE
USA 306 3.1 21:39:08 10° WNW 21:42:58 60° NNE 21:45:08 24° E
GEOS 3 Rocket 4.5 21:40:39 10° NE 21:45:41 51° NW 21:50:38 10° WSW
ATLAS 3B R/B 4.5 21:46:09 10° WNW 21:52:07 24° WSW 21:57:02 13° SSW
Meteor 2-17 Rocket 4.3 21:50:27 28° S 21:53:51 83° E 21:59:57 10° NNE
SL-8 R/B 3.7 21:50:46 10° SW 21:55:24 54° SSE 22:00:04 10° E
Cosmos 1500 Rocket 3.9 21:52:06 10° NNW 21:56:21 55° W 21:57:58 33° SSW
Terra 4.1 21:53:24 10° SW 21:56:22 16° W 21:59:21 10° NW
Cosmos 1943 3.4 21:53:57 12° SW 21:59:15 71° WNW 22:04:56 10° NNE
Cosmos 1733 3.2 21:56:01 10° NNW 21:59:30 62° W 22:00:07 51° SW
USA 234 3.8 21:53:46 10° E 22:00:10 58° NNE 22:06:33 10° NW
Spot 4 4.3 21:58:25 32° SE 22:00:15 50° ENE 22:04:51 10° N
ALOS 2 3.7 21:58:50 26° ESE 22:00:24 35° ENE 22:04:24 10° N
Meteor 2-4 Rocket 4.1 22:00:28 33° SSE 22:02:48 52° E 22:08:32 10° NNE
H-2A R/B 2.5 22:02:30 46° SE 22:03:36 69° ENE 22:07:48 10° N
Cosmos 1805 Rocket 4.0 22:00:59 10° NNW 22:05:16 54° W 22:06:48 35° SSW
IRIDIUM 104 4.3 22:00:57 10° N 22:06:12 79° E 22:08:14 38° SSE
Lacrosse 4 Rocket 3.0 22:04:49 10° NNW 22:08:21 28° NE 22:10:34 17° E
Cosmos 1151 Rocket 3.0 22:08:37 43° SSW 22:10:01 87° WNW 22:14:23 10° N
Cosmos 1092 Rocket 4.1 22:10:25 34° SSE 22:13:12 66° E 22:19:28 10° NNE
Cosmos 1666 Rocket 3.6 22:09:00 10° N 22:13:20 65° E 22:14:23 47° SE
Cosmos 1428 Rocket 4.4 22:11:50 32° S 22:14:52 85° E 22:21:01 10° N
IRIDIUM 114 4.3 22:10:06 10° N 22:15:22 87° W 22:17:22 39° S
Cosmos 1302 Rocket 3.9 22:10:10 10° NNW 22:15:23 79° WSW 22:17:13 41° S
Cosmos 1656 4.3 22:10:52 10° NNW 22:16:09 48° NE 22:19:03 25° ESE
Cosmos 1633 Rocket 3.3 22:12:38 10° N 22:17:01 59° ENE 22:18:08 44° SE
ARIANE 5 R/B 2.9 22:16:04 41° SSW 22:17:19 57° W 22:21:36 10° NNW
ISS -2.9 22:14:07 10° WNW 22:16:33 38° WSW 22:16:33 38° WSW
Cosmos 1340 Rocket 3.1 22:17:22 39° SW 22:18:37 60° WNW 22:22:36 10° N
USA 59 Rocket 0.2 22:17:14 10° NW 22:21:01 66° NE 22:22:59 34° ESE
NOSS 2-1 (E) 3.7 22:18:05 10° NW 22:21:53 67° NE 22:23:49 34° ESE
MINOTAUR 4 R/B 4.4 22:19:15 10° N 22:22:06 42° WNW 22:22:21 41° W
Cosmos 1992 Rocket 4.2 22:18:33 10° NNW 22:23:46 66° ENE 22:25:48 36° SE
IRIDIUM 103 4.4 22:19:17 10° N 22:24:30 74° W 22:26:30 38° SSW
CZ-2C R/B 4.1 22:20:55 10° N 22:25:25 58° WNW 22:27:23 31° SW
H-2A R/B 3.6 22:21:57 10° NE 22:25:26 22° E 22:25:53 22° ESE
Cosmos 1697 Rocket 4.2 22:21:49 10° NNW 22:26:45 30° NE 22:31:17 11° ESE
Cosmos 614 Rocket 4.0 22:27:45 43° S 22:29:18 65° ESE 22:34:29 10° NNE
Cosmos 1766 3.6 22:26:50 10° N 22:30:28 47° ENE 22:30:52 44° E
Cosmos 2195 Rocket 4.4 22:27:33 33° SSW 22:30:32 82° W 22:36:41 10° N
Cosmos 1980 Rocket 4.4 22:27:43 10° N 22:31:52 20° NE 22:36:00 10° E
NOSS 2-1 (D) 3.5 22:29:42 10° NW 22:33:30 86° NE 22:34:55 45° SE
Cosmos 1470 4.1 22:31:07 10° NNE 22:34:16 25° ENE 22:34:54 24° E
Cosmos 1805 3.9 22:36:14 10° NNW 22:39:44 41° W 22:40:09 39° WSW
Spot 2 4.3 22:50:57 49° SSW 22:52:00 65° WSW 22:56:46 10° NNW
Cosmos 1975 3.7 22:53:01 10° NNW 22:56:39 36° W 22:57:09 35° WSW
NOSS 3-3 (A) 4.0 22:59:40 41° SSE 23:00:57 48° ESE 23:06:59 10° NE
Lacrosse 5 rocket 3.6 22:57:57 10° WNW 23:01:33 26° N 23:05:04 10° NE
Cosmos 1626 2.5 23:04:41 45° WNW 23:04:41 45° WNW 23:07:46 10° N
Cosmos 1269 Rocket 4.0 23:04:35 47° S 23:06:03 71° ESE 23:11:19 10° NNE
USA 267 3.1 22:59:47 10° ENE 23:06:20 74° SE 23:10:42 23° SW
Cosmos 1140 Rocket 4.5 23:05:26 30° SE 23:06:27 32° ESE 23:11:04 10° NE
Cosmos 1674 2.6 23:07:50 61° ENE 23:07:50 61° ENE 23:11:07 10° NNE
NOSS 2-1 (C) 3.8 23:04:54 10° NW 23:08:44 52° SW 23:09:07 50° SSW
Cosmos 2082 Rocket 4.3 23:08:47 12° ESE 23:10:23 13° E 23:12:53 10° ENE
PSLV R/B 3.6 23:08:28 10° NNE 23:13:05 76° ESE 23:13:59 56° S
USA 306 4.0 23:13:01 10° WNW 23:15:15 27° W 23:15:15 27° W
Cosmos 1833 Rocket 3.1 23:17:10 39° SSE 23:18:33 47° ESE 23:23:56 10° NE
Cosmos 44 Rocket 4.1 23:17:50 10° NNW 23:22:40 48° NE 23:26:07 17° ESE
Cosmos 2315 Rocket 4.4 23:18:15 10° N 23:24:26 55° ENE 23:27:37 28° SE
S3M 4.0 23:19:15 10° N 23:25:39 79° E 23:28:27 36° SSE
NOSS 3-3 (C) 3.8 23:26:06 43° SSW 23:27:58 69° SE 23:34:20 10° NE
SL-24 R/B 4.3 23:25:50 10° N 23:30:15 72° WNW 23:31:32 46° SW
Cosmos 2285 Rocket 4.4 23:29:13 35° SSE 23:31:28 50° ESE 23:37:32 10° NNE
Cosmos 1515 Rocket 3.7 23:31:37 49° SW 23:32:30 62° WNW 23:36:48 10° N
GP-B 3.2 23:30:35 10° N 23:34:58 64° E 23:35:54 50° SE
Cosmos 1400 Rocket 4.4 23:34:57 23° ESE 23:35:36 24° E 23:38:52 10° NE
ALOS 2 3.8 23:36:13 27° WSW 23:36:47 28° W 23:40:35 10° NW
Cosmos 1553 Rocket 4.4 23:31:36 10° NNW 23:37:25 49° W 23:39:39 34° SW
SL-8 R/B 3.5 23:32:56 10° W 23:37:43 87° S 23:42:31 10° E
Cosmos 1869 Rocket 3.4 23:37:44 10° N 23:42:06 86° E 23:42:58 57° SSE
USA 234 3.2 23:38:50 23° SE 23:43:07 68° SW 23:49:41 10° WNW
Meteor 1-13 Rocket 4.3 23:41:22 40° S 23:43:37 77° E 23:49:33 10° NNE
Cosmos 1733 Rocket 4.2 23:41:12 10° N 23:45:13 36° ENE 23:46:57 26° ESE
Lacrosse 4 Rocket 2.0 23:42:55 10° NW 23:46:28 39° WSW 23:46:28 39° WSW
